Skip Page Navigation
NASA JPL Caltech
NASA Logo - Jet Propulsion Laboratory + View the NASA Portal
+ Near-Earth Object (NEO) Program
Search JPL
JPL Home Earth Solar System Stars & Galaxies Technology
JPL Solar System Dynamics
BODIES ORBITS EPHEMERIDES TOOLS PHYSICAL DATA DISCOVERY FAQ SITE MAP
JPL Small-Body Database Browser
Search: [ help ]  
304518 (2006 UJ215)
Classification: Main-belt Asteroid          SPK-ID: 2304518
Ephemeris | Orbit Diagram | Orbital Elements | Physical Parameters | Discovery Circumstances | Close-Approach Data ]

[ hide orbit diagram ]
Orbit Diagram
Note: Make sure you have Java enabled on your browser to see the applet. This applet is provided as a 3D orbit visualization tool. The applet was implemented using 2-body methods, and hence should not be used for determining accurate long-term trajectories (over several years or decades) or planetary encounter circumstances. For accurate long-term ephemerides, please instead use our Horizons system.
Orbit Viewer

Additional Notes: the orbits shown in the applet are color coded. The planets are white lines, and the asteroid/comet is a blue line. The bright white line indicates the portion of the orbit that is above the ecliptic plane, and the darker portion is below the ecliptic plane. Likewise for the asteroid/comet orbit, the light blue indicates the portion above the ecliptic plane, and the dark blue the portion below the ecliptic plane.

Orbit Viewer applet originally written and kindly provided by Osamu Ajiki (AstroArts), and further modified by Ron Baalke (JPL).


Orbital Elements at Epoch 2456400.5 (2013-Apr-18.0) TDB
Reference: JPL 1 (heliocentric ecliptic J2000)
 Element Value Uncertainty (1-sigma)   Units 
e .1180170604225607 1.6112e-07  
a 2.788775230000893 9.9361e-08 AU
q 2.459652175176937 4.1484e-07 AU
i 9.536668515337521 1.8922e-05 deg
node 26.66453134957941 5.9903e-05 deg
peri 117.1470719650344 0.00014962 deg
M 43.21488297930954 0.00012146 deg
tp 2456196.302915981533
(2012-Sep-25.80291598)
0.00057297 JED
period 1701.056330103767
4.66
9.0911e-05
2.489e-07
d
yr
n .2116332032214591 1.131e-08 deg/d
Q 3.117898284824849 1.1109e-07 AU
  Orbit Determination Parameters
   # obs. used (total)      155  
   data-arc span      2399 days (6.57 yr)  
   first obs. used      2006-09-25  
   last obs. used      2013-04-20  
   planetary ephem.      DE405  
   SB-pert. ephem.      SB405-CPV-2  
   condition code      0  
   fit RMS      .61526  
   data source      ORB  
   producer      Otto Matic  
   solution date      2013-Apr-29 22:56:21  

Additional Information
 Earth MOID = 1.48801 AU 
 T_jup = 3.300 
[ show covariance matrix ]

Ephemeris | Orbit Diagram | Orbital Elements | Physical Parameters | Discovery Circumstances | Close-Approach Data ]

Physical Parameter Table
Parameter Symbol Value Units Sigma Reference Notes
absolute magnitude H 16.498 mag .52915 1 autocmod 2.5c

304518 (2006 UJ215)          Discovered 2006-Oct-27 by Molnar, L. A. at Calvin-Rehoboth (G98)
Reference: 20111110/Numbers.arcLast Updated: 2011-11-14

[ show close-approach data ]
Ephemeris | Orbit Diagram | Orbital Elements | Physical Parameters | Discovery Circumstances | Close-Approach Data ]
ABOUT SSD CREDITS/AWARDS PRIVACY/COPYRIGHT GLOSSARY LINKS
FirstGov 2013-May-19 05:43 UT
(server date/time)  
NASA Home Page
Site Manager:   Donald K. Yeomans
Webmaster  Alan B. Chamberlin